Location: Spondin
(51.8528°N, 111.6118°W)
Time: 17:47:21
(UTC+00:00)

Vanguard 2 Rocket - Pass Details

Date: 28 May 2022
Orbit: 553 x 3323 km, 32.9° (Epoch: 02 July)

Event Time Altitude Azimuth Distance (km) Brightness Sun altitude
Rises 20:38:48 0° 232° (SW) 7,291 12.0 56.4°
Reaches altitude 10° 20:44:27 10° 225° (SW) 6,266 11.9 55.9°
Maximum altitude 21:00:45 35° 170° (S) 3,995 11.1 54.4°
Drops below altitude 10° 21:12:56 10° 113° (ESE) 4,708 10.5 53.1°
Sets 21:16:26 0° 104° (ESE) 5,353 10.6 52.7°
